Location: Hope
(40.9110°N, 74.9680°W)
Time: 04:25:21
(UTC-04:00)

X-37B - Visible Passes

Search period start: 11 May 2021 00:00
Search period end: 21 May 2021 00:00
Orbit: 386 x 389 km, 45.0° (Epoch: 08 May)

Date Brightness Start Highest point End Pass type
(mag) Time Alt. Az. Time Alt. Az. Time Alt. Az.
11 May 1.6 20:34:24 10° WNW 20:37:28 42° N 20:40:32 10° E visible
11 May 1.0 22:11:03 10° WNW 22:13:48 53° WSW 22:13:48 53° WSW visible
12 May 0.6 21:12:38 10° WNW 21:15:51 82° NNE 21:17:54 20° ESE visible
12 May 3.5 22:49:52 10° W 22:50:11 12° W 22:50:11 12° W visible
13 May 1.6 21:51:03 10° W 21:53:59 33° SSW 21:54:19 32° SSW visible
14 May 0.8 20:52:32 10° WNW 20:55:41 59° SSW 20:58:28 12° SE visible
15 May 2.6 21:31:21 10° W 21:33:40 18° SW 21:34:57 15° S visible
